Time,TemperatureF,DewpointF,PressureIn,WindDirection,WindDirectionDegrees,WindSpeedMPH,WindSpeedGustMPH,Humidity,HourlyPrecipIn,Conditions,Clouds,dailyrainin,SoftwareType,DateUTC
2013-07-28 16:09:00,74.1,67.0,0.00,North,0,0.0,0.0,79,0.00,,,0.00,WUHU21623XXSP,2013-07-28 20:09:00,
2013-07-28 16:14:00,74.1,67.6,0.00,North,0,0.0,0.0,80,0.00,,,0.00,WUHU21623XXSP,2013-07-28 20:14:00,
2013-07-28 16:19:00,74.1,67.6,0.00,North,0,0.0,0.0,80,0.00,,,0.00,WUHU21623XXSP,2013-07-28 20:19:00,
2013-07-28 16:24:00,74.1,67.6,0.00,North,0,0.0,0.0,80,0.00,,,0.00,WUHU21623XXSP,2013-07-28 20:24:00,
2013-07-28 16:29:00,73.9,67.3,0.00,North,0,0.0,0.0,81,0.00,,,0.00,WUHU21623XXSP,2013-07-28 20:29:00,
2013-07-28 16:34:00,73.9,67.8,0.00,North,0,0.0,0.0,81,0.00,,,0.00,WUHU21623XXSP,2013-07-28 20:34:00,
2013-07-28 16:39:00,73.9,68.5,0.00,North,0,0.0,0.0,83,0.00,,,0.00,WUHU21623XXSP,2013-07-28 20:39:00,
2013-07-28 16:44:00,73.9,68.5,0.00,North,0,0.0,0.0,83,0.00,,,0.00,WUHU21623XXSP,2013-07-28 20:44:00,
2013-07-28 16:49:00,73.9,68.5,0.00,North,0,0.0,0.0,83,0.00,,,0.00,WUHU21623XXSP,2013-07-28 20:49:00,
2013-07-28 16:54:00,73.9,68.5,0.00,North,0,0.0,0.0,83,0.00,,,0.00,WUHU21623XXSP,2013-07-28 20:54:00,
2013-07-28 16:59:00,73.9,68.5,0.00,North,0,0.0,0.0,83,0.00,,,0.00,WUHU21623XXSP,2013-07-28 20:59:00,
2013-07-28 17:04:00,73.9,68.5,0.00,North,0,0.0,0.0,83,0.00,,,0.00,WUHU21623XXSP,2013-07-28 21:04:00,
2013-07-28 18:01:00,74.3,69.5,0.00,North,0,0.0,0.0,85,0.00,,,0.00,WUHU21623XXSP,2013-07-28 22:01:00,
2013-07-28 18:06:00,74.3,69.5,0.00,North,0,0.0,0.0,85,0.00,,,0.00,WUHU21623XXSP,2013-07-28 22:06:00,
2013-07-28 18:11:00,74.3,69.5,0.00,North,0,0.0,0.0,85,0.00,,,0.00,WUHU21623XXSP,2013-07-28 22:11:00,
2013-07-28 18:16:00,74.5,69.7,0.00,North,0,0.0,0.0,85,0.00,,,0.00,WUHU21623XXSP,2013-07-28 22:16:00,
2013-07-28 18:21:00,74.5,69.7,0.00,North,0,0.0,0.0,85,0.00,,,0.00,WUHU21623XXSP,2013-07-28 22:21:00,
2013-07-28 18:26:00,74.5,69.7,0.00,North,0,0.0,0.0,85,0.00,,,0.00,WUHU21623XXSP,2013-07-28 22:26:00,
2013-07-28 18:31:00,74.5,69.7,0.00,North,0,0.0,0.0,85,0.00,,,0.00,WUHU21623XXSP,2013-07-28 22:31:00,
2013-07-28 18:36:00,74.5,69.7,0.00,North,0,0.0,0.0,85,0.00,,,0.00,WUHU21623XXSP,2013-07-28 22:36:00,
2013-07-28 19:18:00,74.1,69.3,0.00,North,0,0.0,0.0,85,0.00,,,0.00,WUHU21623XXSP,2013-07-28 23:18:00,
2013-07-28 19:23:00,74.1,69.3,0.00,North,0,0.0,0.0,85,0.00,,,0.00,WUHU21623XXSP,2013-07-28 23:23:00,
2013-07-28 19:28:00,74.1,69.3,0.00,North,0,0.0,0.0,85,0.00,,,0.00,WUHU21623XXSP,2013-07-28 23:28:00,
2013-07-28 19:33:00,74.1,69.3,0.00,North,0,0.0,0.0,85,0.00,,,0.00,WUHU21623XXSP,2013-07-28 23:33:00,
2013-07-28 19:38:00,74.1,69.3,0.00,North,0,0.0,0.0,85,0.00,,,0.00,WUHU21623XXSP,2013-07-28 23:38:00,
2013-07-28 20:09:00,73.8,69.3,0.00,North,0,0.0,0.0,86,0.00,,,0.00,WUHU21623XXSP,2013-07-29 00:09:00,
2013-07-28 20:14:00,73.8,69.3,0.00,North,0,0.0,0.0,86,0.00,,,0.00,WUHU21623XXSP,2013-07-29 00:14:00,
2013-07-28 20:19:00,73.8,69.3,0.00,North,0,0.0,0.0,86,0.00,,,0.00,WUHU21623XXSP,2013-07-29 00:19:00,
2013-07-28 20:24:00,73.8,69.3,0.00,North,0,0.0,0.0,86,0.00,,,0.00,WUHU21623XXSP,2013-07-29 00:24:00,
2013-07-28 20:29:00,73.8,69.3,0.00,North,0,0.0,0.0,86,0.00,,,0.00,WUHU21623XXSP,2013-07-29 00:29:00,
2013-07-28 20:34:00,73.8,69.3,0.00,North,0,0.0,0.0,86,0.00,,,0.00,WUHU21623XXSP,2013-07-29 00:34:00,
2013-07-28 20:39:00,73.8,69.3,0.00,North,0,0.0,0.0,86,0.00,,,0.00,WUHU21623XXSP,2013-07-29 00:39:00,
2013-07-28 20:44:00,73.8,69.3,0.00,North,0,0.0,0.0,86,0.00,,,0.00,WUHU21623XXSP,2013-07-29 00:44:00,
2013-07-28 22:49:00,72.0,67.9,0.00,North,0,0.0,0.0,87,0.00,,,0.00,WUHU21623XXSP,2013-07-29 02:49:00,
2013-07-28 22:55:00,72.0,67.9,0.00,North,0,0.0,0.0,87,0.00,,,0.00,WUHU21623XXSP,2013-07-29 02:55:00,
2013-07-28 23:02:00,72.0,67.9,0.00,North,0,0.0,0.0,87,0.00,,,0.00,WUHU21623XXSP,2013-07-29 03:02:00,
2013-07-28 23:08:00,71.8,67.7,0.00,North,0,0.0,0.0,87,0.00,,,0.00,WUHU21623XXSP,2013-07-29 03:08:00,
2013-07-28 23:15:00,71.8,67.7,0.00,North,0,0.0,0.0,87,0.00,,,0.00,WUHU21623XXSP,2013-07-29 03:15:00,
2013-07-28 23:21:00,71.8,67.7,0.00,North,0,0.0,0.0,87,0.00,,,0.00,WUHU21623XXSP,2013-07-29 03:21:00,
2013-07-28 23:30:00,71.8,67.7,0.00,North,0,0.0,0.0,88,0.00,,,0.00,WUHU21623XXSP,2013-07-29 03:30:00,
2013-07-28 23:36:00,71.8,68.0,0.00,North,0,0.0,0.0,88,0.00,,,0.00,WUHU21623XXSP,2013-07-29 03:36:00,
2013-07-28 23:43:00,71.8,68.0,0.00,North,0,0.0,0.0,88,0.00,,,0.00,WUHU21623XXSP,2013-07-29 03:43:00,
2013-07-28 23:51:00,71.4,67.7,0.00,North,0,0.0,0.0,88,0.00,,,0.00,WUHU21623XXSP,2013-07-29 03:51:00,
2013-07-28 23:58:00,71.4,67.7,0.00,North,0,0.0,0.0,88,0.00,,,0.00,WUHU21623XXSP,2013-07-29 03:58:00,